FENGYUN 1C DEB

Satellite information

Favourite Embed

Satellite Type and Status

DEBRISIN ORBIT

Key statistics

Satellite FENGYUN 1C DEB at a glance.

Uptime

9715

Days in orbit

Revolutions

≈ 14.6

Per day

Orbit

SSO

Sun Synchronous Orbit

Inclination

99.3

Latest

Satellite identification and parameters

Extended collection of information and parameters for FENGYUN 1C DEB.

Object identification

Identified? True

Debris? True

Object name: FENGYUN 1C DEB

International designator: 1999-025CLE

Object number (NORAD): 31903

Object ID (CCSDS): 31903

Country: PEOPLES REPUBLIC OF CHINA (PRC)

Current information (Y/N): Y

RCS size: SMALL

Orbital parameters

Period: 98.598 minutes

Inclination: 99.2744 deg

SMA: 7069.771 km

Apoapsis: 783.632 km

Periapsis: 599.64 km

RAAN: 334.24 deg

Eccentricy: 0.0130126

Argument of periapsis: 38.4051 deg

Mean anomaly: 322.6322 deg

Mean motion: 14.60476949 rev/day

Mean motion (dot): 0.00006173 rev/day2

B* drag term: 0.0011407 1/REarth

Two-line elements (TLE)

Creation date: Dec. 12, 2025, 7:26 a.m.

Reference frame: TEME

Reference center: EARTH

Epoch: Dec. 11, 2025, 10 p.m. UTC

TLE line 0: 0 FENGYUN 1C DEB

TLE line 1: 1 31903U 99025CLE 25345.91733225 .00006173 00000-0 11407-2 0 9994

TLE line 2: 2 31903 99.2744 334.2400 0130126 38.4051 322.6322 14.60476949973833

Live tracking on map

Real-time ground track for satellite FENGYUN 1C DEB.

In-orbit conjunctions

A list of the most updated potential collisions computed for object FENGYUN 1C DEB.

Target Orbit TCA Probability of collision Miss distance Type
CZ-6A DEB LEO 2025-10-23 21:53:12 0.0001814656 412.0 (m) DEBRIS
SL-8 R/B LEO 2025-10-15 00:42:49 0.0001123683 803.0 (m) ROCKET BODY
IRIDIUM 33 DEB LEO 2025-09-21 09:12:33 0.0001367046 44.0 (m) DEBRIS
FENGYUN 1C DEB SSO 2025-09-11 13:58:14 0.0009506625 7.0 (m) DEBRIS
CZ-6A DEB LEO 2024-10-04 10:32:55 0.0001015766 691.0 (m) DEBRIS

Associated space launch

Chinese polar orbiting meteorological satellite

FENGYUN 1C DEB was lifted into orbit during the mission ‘Long March 4B | Feng Yun 1C’, on board a Long March 4B space rocket.

The launch took place on May 10, 1999, 1:33 a.m. from Launch Complex 7.

For more information about the launch, click the button.

Launch to space Long March 4B | Feng Yun 1C
Long March 4B | Feng Yun 1C

Agency: N/A

Status: Launch Successful

Launch date: May 10, 1999, 1:33 a.m. UTC

Rocket: Long March 4B

Launch pad: Launch Complex 7

Location: Taiyuan Satellite Launch Center, People's Republic of China

...

Latest news about this satellite

There are no fresh news available about this satellite. Check back as we update our databases every day.


Newsletter sign-up

Weekly statistics, charts and insights to help you stay on top of the space industry.